FENGYUN 1C DEB, 46450

Orbit data source: Space-Track

FENGYUN 1C DEB, 46450 is space debris in SSO originally from a launch on Mon, 10 May 1999 UTC launched from the Taiyaun Space Center, China (TSC). Fengyun 1C debris stems from the Chinese weather satellite Fengyun-1C, which was intentionally destroyed by a Chinese anti-satellite missile in 2007. This event dramatically increased the amount of space debris, with thousands of trackable fragments posing hazards to satellites and human spaceflight. The Fengyun 1C debris cloud has become a focal point in discussions about space sustainability and the need for international regulations to prevent the creation of new debris.

Loading next visibility...
Identifier
46450, 1999-025EZF
Orbit
SSO
Country
Flag of CNCN / PRC
Related business
Manufacturer
Unknown
Mission
Spacecraft
Bus & Motor
Unknown
Mass
Unknown
Launch date (UTC)
1999-05-10 (26 years ago)
Launch vehicle
Unknown
Launch site
Taiyaun Space Center, China (TSC)
Object type
Payload
Rocket body
Debris
Shape & HBR
Unknown shape, 0.1 m
Radar Cross Section
Small (<0.1 m²)

Expand to show TLE details & history
Last TLE update: 2 days ago

TLE from 2 days ago
0 FENGYUN 1C DEB
1 46450U 99025EZF 25286.06960784  .00005126  00000-0  28743-2 0  9997
2 46450  98.0787 149.4373 0181945 235.4040 122.9851 14.02962714602683
Epoch: 2025-10-13T01:40Z
TLE epoch observation values (Epoch: 2025-10-13T01:40:14.117Z)
Latitude
0.00004°
Longitude
102.5008°
Altitude
960.076 km
Speed
7.334 km/s
True Right ascension
09h 57m 44s
True Declination
0° 00' 00"
Sunlit
Object was in daylight at epoch
Visualization orbit readout
Latitude
Unknown
Longitude
Unknown
Altitude
Unknown
Speed
Unknown
Apparent Right ascension
Unknown
Apparent Declination
Unknown
Sunlit
N/A
Visualization observer readout
Local Sidereal Time
06:01:27
Azimuth
Unknown
Elevation
Unknown
Doppler factor
Unknown
Orbital elements
Apogee altitude
1,012.776 km
Perigee altitude
748.634 km
Semi-major axis
7,258.842 km
Eccentricity
0.01819
Inclination
98.0787°
RAAN
149.4373°
Arg. of periapsis
235.404°
True anomaly
124.71231°
Mean anomaly
122.9851°
Eccentric anomaly
123.85086°
Mean motion
3.50948 °/min
Orbital period
102.58 mins
BSTAR
0.0028743
Loading maneuver chart data...
Computing Atmospheric mass density...

Documentation

Showing up to 5 results
|